Tracking 31027 objects as of 19-Jul-2025
HD Live streaming from Space Station
objects crossing your sky now

STARLINK-5800

Track STARLINK-5800 now!
10-day predictions
STARLINK-5800 is classified as:


NORAD ID: 56041
Int'l Code: 2023-042BH
Perigee: 565.2 km
Apogee: 567.3 km
Inclination: 43.0 °
Period: 95.8 minutes
Semi major axis: 6937 km
RCS: Unknown
Launch date: March 24, 2022
Source: United States (US)
Launch site: AIR FORCE EASTERN TEST RANGE (AFETR)
Your satellite tracking list
PRISMA
Track 1 satellite(s)




NASA's NSSDC Master Catalog

Two Line Element Set (TLE):
1 56041U 23042BH  25199.56895395 -.00000660  00000-0 -33812-4 0  9998
2 56041  43.0026 222.0857 0001514 278.0445  82.0225 15.02529713127992
Source of the keplerian elements: AFSPC